Location: Binningen
(47.7924°N, 8.7261°E)
Time: 23:09:31
(UTC+00:00)

Nimbus 7 Rocket - Pass Details

Date: 17 May 2021
Orbit: 923 x 964 km, 99.4° (Epoch: 24 June)

Event Time Altitude Azimuth Distance (km) Brightness Sun altitude
Rises 23:06:40 0° 16° (NNE) 3,587 8.7 -22.6°
Reaches altitude 10° 23:09:06 10° 17° (NNE) 2,644 7.7 -22.6°
Maximum altitude 23:15:01 82° 105° (ESE) 951 4.3 -22.6°
Enters shadow 23:16:51 47° 186° (S) 1,220 4.5 -22.6°
